Date,TemperatureHighF,TemperatureAvgF,TemperatureLowF,DewpointHighF,DewpointAvgF,DewpointLowF,HumidityHigh,HumidityAvg,HumidityLow,PressureMaxIn,PressureMinIn,WindSpeedMaxMPH,WindSpeedAvgMPH,GustSpeedMaxMPH,PrecipitationSumIn
2013-4-25,35,34,33,34,33,33,98,97,96,28.00,28.00,3,1,5,3.21
2013-4-26,34,32,31,33,31,30,97,96,94,28.00,28.00,4,1,7,0.00
2013-4-27,36,32,30,32,30,28,97,91,80,28.00,28.00,4,1,7,0.25
2013-4-28,33,30,25,30,20,11,96,69,45,28.00,28.00,15,3,23,0.02
2013-4-29,38,30,22,22,13,8,79,51,32,28.00,28.00,9,2,13,0.10
2013-4-30,35,32,27,33,29,22,95,90,80,28.00,28.00,9,4,25,0.01
2013-5-1,42,36,32,40,34,32,98,96,92,28.00,28.00,18,6,33,0.00
2013-5-2,47,42,40,44,41,39,97,95,87,28.00,28.00,17,8,44,0.00
2013-5-3,45,43,41,42,41,40,97,94,90,28.00,28.00,10,5,31,0.00
2013-5-4,48,44,42,47,44,41,99,97,93,28.00,28.00,31,10,35,0.00
2013-5-5,46,44,41,43,42,40,98,93,86,28.00,28.00,27,4,27,0.00
2013-5-6,48,42,38,43,40,36,98,89,76,30.21,28.00,10,2,13,0.01
2013-5-7,52,42,37,39,35,32,94,78,51,30.22,30.13,4,2,6,0.00
2013-5-8,61,49,39,37,32,28,70,54,33,30.22,30.11,4,1,7,0.00
2013-5-9,64,53,42,36,32,30,66,46,28,30.30,30.22,5,1,11,0.00
2013-5-10,65,54,45,37,33,30,59,46,32,30.24,29.99,7,1,8,0.00
2013-5-11,49,46,43,46,41,34,97,84,58,29.99,29.66,4,1,6,0.47
2013-5-12,50,46,42,48,45,42,98,96,93,29.66,29.55,6,1,12,0.26
2013-5-13,49,45,44,46,44,43,99,96,87,29.60,29.53,9,4,21,0.28
2013-5-14,49,46,44,44,43,42,97,89,82,29.75,29.59,13,5,30,0.00
2013-5-15,52,46,42,44,38,34,95,75,51,29.94,29.74,15,4,25,0.00
2013-5-16,51,47,40,42,40,36,89,78,68,29.96,29.82,9,3,17,0.00
2013-5-17,51,46,44,46,44,42,97,93,84,29.82,29.68,7,3,18,0.07
2013-5-18,48,44,40,45,41,33,98,87,66,30.11,29.68,16,4,26,0.01
2013-5-19,48,41,36,36,34,30,89,74,55,30.48,30.11,9,2,23,0.00
2013-5-20,49,42,35,34,25,18,92,56,30,30.54,30.47,12,3,18,0.00
2013-5-21,58,49,38,27,24,21,53,38,26,30.48,30.14,9,2,15,0.00
2013-5-22,56,50,44,37,33,25,63,51,44,30.14,30.05,13,3,18,0.00
2013-5-23,66,55,41,39,34,33,74,49,30,30.08,29.92,6,1,8,0.00
2013-5-24,68,59,52,49,40,33,70,50,30,29.99,29.93,8,2,14,0.00
2013-5-25,62,54,47,50,44,41,88,71,56,30.01,29.97,5,1,11,0.00
2013-5-26,66,55,44,48,45,41,90,71,52,29.98,29.84,4,1,11,0.00
2013-5-27,74,61,50,50,44,40,79,56,35,29.87,29.60,4,1,7,0.00
2013-5-28,73,62,52,49,44,41,70,52,36,29.63,29.55,11,1,13,0.00
2013-5-29,74,62,51,51,47,42,91,61,38,29.85,29.60,9,2,14,0.00
2013-5-30,62,55,50,52,50,47,97,84,66,30.01,29.85,4,1,7,0.01
2013-5-31,53,49,45,49,47,44,97,95,86,30.17,30.01,13,1,16,0.31
2013-6-1,51,46,44,46,44,42,96,91,83,30.28,30.17,6,2,16,0.01
2013-6-2,56,49,44,47,44,42,97,83,60,30.31,30.18,5,1,11,0.01
2013-6-3,57,49,42,47,44,40,97,84,62,30.18,29.95,10,3,17,0.04
2013-6-4,56,50,47,50,45,40,98,84,63,29.95,29.87,12,4,18,0.00
2013-6-5,52,48,46,45,44,42,92,83,74,30.09,29.92,14,3,18,0.00
2013-6-6,60,51,45,46,43,39,95,76,47,30.09,29.72,6,2,12,0.00
2013-6-7,59,52,46,49,46,43,96,82,63,29.91,29.73,9,2,13,0.03
2013-6-8,64,54,46,49,46,42,92,74,51,30.08,29.91,6,2,15,0.07
2013-6-9,70,58,49,52,49,47,96,74,49,30.15,30.08,5,2,8,0.01
2013-6-10,76,63,51,50,48,45,83,59,40,30.13,29.96,6,1,10,0.00
2013-6-11,76,67,56,49,46,44,65,48,34,29.99,29.87,6,1,8,0.00
2013-6-12,70,63,56,52,47,44,68,56,43,29.98,29.92,9,2,17,0.00
2013-6-13,60,55,51,51,48,46,87,76,64,30.13,29.98,7,2,17,0.00
2013-6-14,72,59,50,48,46,43,89,65,40,30.18,30.08,5,1,8,0.00
2013-6-15,82,70,58,50,45,42,57,41,27,30.16,30.03,5,1,7,0.00
2013-6-16,83,72,61,52,47,43,54,42,27,30.10,29.97,3,1,12,0.00
2013-6-17,83,68,59,54,45,34,80,46,23,29.98,29.78,26,4,28,0.01
2013-6-18,66,58,50,53,48,35,92,72,39,30.00,29.95,8,2,16,0.09
2013-6-19,79,67,56,57,52,48,90,62,35,30.00,29.89,5,2,9,0.06
2013-6-20,71,63,57,57,55,51,92,76,58,30.00,29.95,4,1,8,0.00
2013-6-21,73,65,58,56,54,51,86,69,55,30.03,29.93,4,1,10,0.00
2013-6-22,61,57,54,55,54,51,94,87,72,29.99,29.88,6,1,14,0.00
2013-6-23,70,60,54,56,53,51,96,78,55,29.88,29.62,4,1,7,0.00
2013-6-24,84,66,55,60,52,48,96,66,31,29.63,29.39,12,2,18,0.22
2013-6-25,72,61,58,60,58,56,97,91,64,29.56,29.50,17,1,17,0.02
2013-6-26,61,56,54,58,55,53,97,95,89,29.93,29.54,8,2,14,0.31
2013-6-27,56,54,53,54,53,52,98,97,94,30.15,29.93,3,0,8,0.66
2013-6-28,63,56,52,55,53,50,99,90,68,30.18,30.02,2,0,5,0.00
2013-6-29,63,56,52,54,51,49,92,83,67,30.06,29.99,3,1,9,0.00
2013-6-30,76,62,52,55,51,47,90,69,38,30.08,29.93,4,1,7,0.00
2013-7-1,60,56,54,55,52,49,97,87,68,29.94,29.86,8,2,20,0.21
2013-7-2,58,54,53,52,51,49,94,87,79,30.02,29.88,13,5,26,0.00
2013-7-3,56,53,51,52,51,49,96,91,85,30.09,30.01,9,3,20,0.01
2013-7-4,59,54,50,52,50,48,96,86,74,30.16,30.09,7,2,15,0.01
2013-7-5,60,55,51,52,50,48,90,84,75,30.19,30.15,4,1,12,0.00
2013-7-6,60,55,52,52,50,48,93,83,71,30.15,30.04,7,1,10,0.00
2013-7-7,57,55,52,52,50,49,96,84,75,30.04,29.84,11,2,16,0.06
2013-7-8,60,54,52,56,52,46,98,91,80,29.92,29.78,11,4,25,0.09
2013-7-9,55,52,50,50,48,46,94,87,79,30.02,29.92,9,3,20,0.00
2013-7-10,64,55,47,50,48,46,96,80,56,29.99,29.84,6,2,11,0.00
2013-7-11,60,54,48,52,49,46,93,84,74,29.91,29.82,5,1,6,0.00
2013-7-12,61,56,51,54,52,49,94,86,76,30.01,29.91,9,2,13,0.00
2013-7-13,65,58,54,54,52,45,94,81,66,30.21,30.01,5,1,12,0.01
2013-7-14,64,58,48,52,49,44,87,72,59,30.26,30.18,7,2,12,0.00
2013-7-15,65,58,51,54,51,47,87,78,68,30.25,30.14,4,1,8,0.00
2013-7-16,72,62,52,57,54,50,92,76,60,30.17,29.99,5,1,9,0.00
2013-7-17,74,65,57,58,55,53,88,72,54,30.01,29.91,6,1,9,0.00
2013-7-18,65,61,57,56,55,53,86,79,72,30.19,29.96,6,2,14,0.00
2013-7-19,60,58,56,55,54,53,95,88,84,30.19,30.07,3,1,9,0.00
2013-7-20,58,56,54,55,54,52,97,93,88,30.07,29.87,5,1,18,0.00
2013-7-21,59,55,53,56,54,52,98,96,90,29.94,29.86,7,2,12,0.19
2013-7-22,66,58,51,59,55,51,98,90,71,30.06,29.94,6,1,11,0.00
2013-7-23,76,65,55,58,53,48,94,69,37,30.06,29.97,7,2,13,0.00
2013-7-24,58,56,54,56,54,52,97,92,86,30.05,30.03,3,1,11,0.07
2013-7-25,62,56,52,56,54,52,98,92,82,30.13,30.04,9,2,16,0.00
2013-7-26,61,57,55,56,54,52,96,90,81,30.27,30.13,5,1,11,0.05
2013-7-27,68,59,54,56,54,52,96,84,66,30.28,30.17,4,1,8,0.00
2013-7-28,82,67,54,58,55,52,94,68,41,30.22,30.07,3,1,7,0.00
2013-7-29,79,68,59,57,55,53,85,64,44,30.10,30.01,8,1,10,0.00
2013-7-30,76,68,59,58,56,53,86,66,53,30.13,30.08,5,1,10,0.00
2013-7-31,72,63,57,59,55,53,88,77,63,30.16,30.02,5,1,9,0.00
2013-8-1,72,64,56,59,56,54,91,74,61,30.05,29.94,5,2,9,0.00
2013-8-2,70,63,56,58,55,53,91,76,63,30.04,29.98,5,2,10,0.00
2013-8-3,65,61,57,58,56,53,89,82,74,30.11,30.04,8,2,12,0.00
2013-8-4,60,56,54,56,54,52,98,94,87,30.08,30.04,10,2,15,0.17
2013-8-5,62,58,53,59,56,53,98,95,89,30.06,30.01,3,1,7,0.16
2013-8-6,71,62,54,58,56,53,98,82,62,30.07,29.95,6,2,11,0.00
2013-8-7,73,62,54,58,55,52,92,78,58,29.98,29.89,3,1,6,0.00
2013-8-8,60,58,56,57,55,52,98,91,78,30.00,29.89,6,1,9,0.38
2013-8-9,64,59,56,58,54,52,98,86,66,30.06,30.00,9,2,16,0.00
2013-8-10,66,59,51,54,52,50,95,78,61,30.07,30.00,4,2,9,0.00
2013-8-11,72,62,52,57,54,50,94,76,57,30.05,29.95,5,1,12,0.00
2013-8-12,76,64,55,57,55,53,92,73,51,29.99,29.93,3,1,7,0.00
2013-8-13,69,62,56,58,55,53,91,79,65,29.99,29.94,6,2,9,0.00
2013-8-14,72,63,58,59,56,55,91,80,59,29.98,29.75,5,2,9,0.00
2013-8-15,70,61,56,58,56,53,96,83,63,29.81,29.74,7,1,15,0.00
2013-8-16,58,57,56,57,56,56,98,98,96,29.81,29.77,12,2,19,0.19
2013-8-17,63,57,54,58,55,53,98,93,76,29.77,29.59,7,1,10,0.12
2013-8-18,58,54,53,54,52,51,98,93,82,29.70,29.58,10,2,15,0.19
2013-8-19,58,55,52,52,51,50,93,87,79,29.89,29.69,5,1,12,0.00
2013-8-20,59,56,53,53,52,51,94,87,77,30.05,29.89,8,2,15,0.00
2013-8-21,58,55,54,53,52,50,92,89,84,30.04,29.83,8,2,14,0.00
2013-8-22,58,54,52,54,52,51,96,91,83,29.84,29.81,7,2,15,0.00
2013-8-23,57,54,53,53,52,51,95,91,82,29.81,29.58,7,2,16,0.01
2013-8-24,54,52,51,52,52,51,99,98,95,29.67,29.55,10,2,17,0.62
2013-8-25,59,54,51,57,54,51,99,97,91,29.76,29.67,8,1,16,0.11
2013-8-26,58,55,52,58,54,52,99,98,96,29.78,29.74,4,1,7,0.12
2013-8-27,69,58,51,57,53,50,98,84,55,29.84,29.72,6,1,13,0.01
2013-8-28,61,56,53,55,53,51,95,90,80,29.87,29.84,2,0,4,0.00
2013-8-29,68,57,50,54,51,48,98,82,57,29.85,29.75,2,1,5,0.00
2013-8-30,61,56,53,54,51,48,98,84,73,30.00,29.78,7,1,14,0.03
2013-8-31,56,54,53,55,54,53,99,98,96,30.00,29.86,11,2,16,0.07
2013-9-1,56,55,54,55,54,53,99,99,98,29.86,29.76,10,2,19,0.00
2013-9-2,62,56,54,56,54,52,99,92,78,29.96,29.86,5,1,10,0.00
2013-9-3,61,56,52,54,53,51,96,89,75,29.97,29.82,13,2,19,0.01
2013-9-4,58,56,53,56,54,52,98,95,90,29.89,29.79,15,5,29,0.05
2013-9-5,58,55,53,54,53,52,97,92,87,30.18,29.89,10,2,18,0.00
2013-9-6,58,54,52,56,53,51,99,97,94,30.18,29.95,12,2,18,0.07
2013-9-7,59,57,55,57,56,54,98,97,93,29.96,29.61,13,4,25,0.00
2013-9-8,59,56,52,58,52,49,99,89,82,30.07,29.54,15,5,31,0.10
2013-9-9,55,52,49,50,49,47,95,88,81,30.12,30.07,5,1,8,0.00
2013-9-10,55,52,49,51,49,47,96,92,86,30.10,30.03,3,1,5,0.00
2013-9-11,60,54,49,57,53,49,99,96,90,30.04,29.88,16,4,28,0.26
2013-9-12,61,55,51,56,53,50,99,95,82,30.06,29.94,4,1,5,0.02
2013-9-13,58,53,50,52,50,49,98,91,79,30.09,29.97,3,1,5,0.00
2013-9-14,59,53,49,52,50,48,95,89,77,29.97,29.80,2,0,4,0.00
2013-9-15,71,58,48,54,49,44,93,73,51,29.80,29.53,7,1,11,0.00
2013-9-16,61,52,50,52,50,47,98,91,64,29.63,29.54,6,2,13,0.30
2013-9-17,50,49,48,49,48,47,98,96,94,29.73,29.62,9,3,14,0.06
2013-9-18,49,47,45,48,46,44,98,96,93,29.78,29.72,5,1,12,0.02
2013-9-19,52,48,45,51,47,45,98,95,83,29.72,29.20,5,0,10,0.23
2013-9-20,52,48,46,51,48,46,99,99,98,29.21,29.09,8,1,20,1.75
2013-9-21,52,48,45,51,46,44,98,90,82,29.23,29.04,10,3,31,0.01
2013-9-22,48,46,44,47,46,44,99,98,94,29.11,28.94,3,0,12,0.18
2013-9-23,47,47,47,46,46,46,99,99,99,29.30,29.30,0,0,2,0.05
2013-10-16,67,67,66,27,26,26,22,22,22,26.20,26.20,0,0,0,0.00
2013-10-22,72,72,71,41,34,29,34,25,21,0.00,40.00,4,2,10,0.00